| time (UTC) | temp F | wind direction | speed MPH | gust MPH | rain 1hr in | rain 24hr in | rain mn in | humidity % | barometer mb |
| 20260503020104 | 78 | 344 | 2.0 | 3.0 | 0.00 | 0.00 | 0.00 | 22 | 1008.2 |
| 20260503015103 | 78 | 317 | 2.0 | 3.0 | 0.00 | 0.00 | 0.00 | 21 | 1008.3 |
| 20260503014103 | 79 | 338 | 2.0 | 3.0 | 0.00 | 0.00 | 0.00 | 20 | 1008.3 |
| 20260503013103 | 79 | 342 | 1.0 | 5.0 | 0.00 | 0.00 | 0.00 | 21 | 1008.4 |
| 20260503011104 | 80 | 308 | 2.0 | 3.0 | 0.00 | 0.00 | 0.00 | 19 | 1008.5 |
| 20260503010103 | 81 | 332 | 3.0 | 5.0 | 0.00 | 0.00 | 0.00 | 19 | 1008.5 |
| 20260503005103 | 81 | 334 | 2.0 | 5.0 | 0.00 | 0.00 | 0.00 | 18 | 1008.5 |
| 20260503004104 | 81 | 349 | 3.0 | 5.0 | 0.00 | 0.00 | 0.00 | 17 | 1008.5 |
| 20260503003104 | 82 | 332 | 3.0 | 7.0 | 0.00 | 0.00 | 0.00 | 18 | 1008.5 |
| 20260503002103 | 82 | 10 | 4.0 | 6.0 | 0.00 | 0.00 | 0.00 | 19 | 1008.5 |
| 20260503000104 | 81 | 315 | 2.0 | 6.0 | 0.00 | 0.00 | 0.00 | 20 | 1008.6 |
| 20260502235103 | 81 | 331 | 5.0 | 7.0 | 0.00 | 0.00 | 0.00 | 19 | 1008.8 |
| 20260502234103 | 82 | 304 | 3.0 | 7.0 | 0.00 | 0.00 | 0.00 | 18 | 1008.9 |
| 20260502233103 | 83 | 314 | 4.0 | 7.0 | 0.00 | 0.00 | 0.00 | 17 | 1009.0 |
| 20260502232103 | 84 | 332 | 4.0 | 7.0 | 0.00 | 0.00 | 0.00 | 16 | 1009.0 |
| 20260502225103 | 83 | 8 | 1.0 | 5.0 | 0.00 | 0.00 | 0.00 | 16 | 1009.5 |
| 20260502224104 | 82 | 8 | 2.0 | 6.0 | 0.00 | 0.00 | 0.00 | 19 | 1009.6 |
| 20260502223103 | 82 | 322 | 3.0 | 7.0 | 0.00 | 0.00 | 0.00 | 19 | 1009.6 |
| 20260502222104 | 82 | 334 | 3.0 | 6.0 | 0.00 | 0.00 | 0.00 | 22 | 1009.8 |
| 20260502221104 | 82 | 321 | 2.0 | 6.0 | 0.00 | 0.00 | 0.00 | 21 | 1010.0 |
| 20260502220104 | 82 | 16 | 3.0 | 7.0 | 0.00 | 0.00 | 0.00 | 22 | 1010.0 |
| 20260502215104 | 82 | 0 | 3.0 | 7.0 | 0.00 | 0.00 | 0.00 | 22 | 1010.1 |
| 20260502214104 | 81 | 311 | 3.0 | 5.0 | 0.00 | 0.00 | 0.00 | 23 | 1010.3 |
| 20260502213104 | 81 | 299 | 3.0 | 5.0 | 0.00 | 0.00 | 0.00 | 23 | 1010.6 |
| 20260502212104 | 81 | 9 | 2.0 | 6.0 | 0.00 | 0.00 | 0.00 | 24 | 1010.6 |
| 20260502211104 | 81 | 305 | 2.0 | 7.0 | 0.00 | 0.00 | 0.00 | 24 | 1010.7 |
| 20260502210104 | 80 | 47 | 3.0 | 6.0 | 0.00 | 0.00 | 0.00 | 24 | 1010.9 |
| 20260502204104 | 79 | 11 | 3.0 | 5.0 | 0.00 | 0.00 | 0.00 | 27 | 1011.1 |
| 20260502203103 | 79 | 358 | 4.0 | 6.0 | 0.00 | 0.00 | 0.00 | 26 | 1011.2 |
| 20260502202103 | 79 | 223 | 1.0 | 5.0 | 0.00 | 0.00 | 0.00 | 27 | 1011.3 |
| 20260502201104 | 78 | 208 | 1.0 | 3.0 | 0.00 | 0.00 | 0.00 | 30 | 1011.5 |
| 20260502200104 | 77 | 122 | 2.0 | 5.0 | 0.00 | 0.00 | 0.00 | 31 | 1011.6 |
| 20260502195104 | 77 | 277 | 2.0 | 3.0 | 0.00 | 0.00 | 0.00 | 30 | 1011.8 |
| 20260502194104 | 76 | 184 | 1.0 | 5.0 | 0.00 | 0.00 | 0.00 | 31 | 1011.9 |
| 20260502193103 | 75 | 330 | 3.0 | 6.0 | 0.00 | 0.00 | 0.00 | 29 | 1012.0 |
| 20260502192104 | 75 | 37 | 2.0 | 5.0 | 0.00 | 0.00 | 0.00 | 29 | 1012.2 |
| 20260502185104 | 75 | 333 | 2.0 | 5.0 | 0.00 | 0.00 | 0.00 | 31 | 1012.5 |
| 20260502184104 | 74 | 271 | 2.0 | 6.0 | 0.00 | 0.00 | 0.00 | 30 | 1012.7 |
| 20260502182103 | 74 | 191 | 1.0 | 3.0 | 0.00 | 0.00 | 0.00 | 31 | 1012.9 |
| 20260502181103 | 73 | 175 | 2.0 | 3.0 | 0.00 | 0.00 | 0.00 | 32 | 1012.9 |
| 20260502180104 | 73 | 183 | 2.0 | 5.0 | 0.00 | 0.00 | 0.00 | 34 | 1013.1 |
| 20260502170104 | 67 | 312 | 2.0 | 6.0 | 0.00 | 0.00 | 0.00 | 38 | 1013.6 |
| 20260502164104 | 66 | 241 | 2.0 | 3.0 | 0.00 | 0.00 | 0.00 | 40 | 1013.7 |
| 20260502163104 | 65 | 276 | 2.0 | 5.0 | 0.00 | 0.00 | 0.00 | 42 | 1013.7 |
| 20260502162103 | 63 | 338 | 1.0 | 3.0 | 0.00 | 0.00 | 0.00 | 43 | 1013.7 |
| 20260502161103 | 63 | 326 | 1.0 | 3.0 | 0.00 | 0.00 | 0.00 | 44 | 1013.7 |
| 20260502152104 | 56 | 61 | 0.0 | 2.0 | 0.00 | 0.00 | 0.00 | 58 | 1013.7 |
| 20260502151103 | 54 | 327 | 0.0 | 1.0 | 0.00 | 0.00 | 0.00 | 59 | 1013.8 |
| 20260502150103 | 53 | 9 | 0.0 | 0.0 | 0.00 | 0.00 | 0.00 | 61 | 1013.7 |
| 20260502140104 | 48 | 171 | 0.0 | 2.0 | 0.00 | 0.00 | 0.00 | 67 | 1013.3 |
| 20260502130104 | 47 | 143 | 0.0 | 2.0 | 0.00 | 0.00 | 0.00 | 64 | 1013.1 |
| 20260502122104 | 48 | 175 | 2.0 | 3.0 | 0.00 | 0.00 | 0.00 | 61 | 1012.9 |
| 20260502121105 | 49 | 161 | 0.0 | 0.0 | 0.00 | 0.00 | 0.00 | 60 | 1012.8 |
| 20260502120104 | 49 | 158 | 0.0 | 3.0 | 0.00 | 0.00 | 0.00 | 60 | 1012.8 |
| 20260502115104 | 49 | 204 | 2.0 | 3.0 | 0.00 | 0.00 | 0.00 | 60 | 1012.8 |
| 20260502114103 | 49 | 170 | 0.0 | 2.0 | 0.00 | 0.00 | 0.00 | 60 | 1012.8 |
| 20260502113104 | 49 | 170 | 0.0 | 2.0 | 0.00 | 0.00 | 0.00 | 56 | 1012.8 |
| 20260502112104 | 50 | 159 | 0.0 | 2.0 | 0.00 | 0.00 | 0.00 | 56 | 1012.8 |
| 20260502111104 | 50 | 155 | 0.0 | 2.0 | 0.00 | 0.00 | 0.00 | 56 | 1012.8 |
| 20260502105104 | 51 | 66 | 0.0 | 1.0 | 0.00 | 0.00 | 0.00 | 57 | 1012.7 |
| 20260502104103 | 51 | 78 | 0.0 | 3.0 | 0.00 | 0.00 | 0.00 | 55 | 1012.8 |
| 20260502102104 | 51 | 140 | 0.0 | 0.0 | 0.00 | 0.00 | 0.00 | 55 | 1012.7 |
| 20260502100104 | 52 | 175 | 2.0 | 3.0 | 0.00 | 0.00 | 0.00 | 55 | 1012.7 |
| 20260502091104 | 56 | 183 | 1.0 | 3.0 | 0.00 | 0.00 | 0.00 | 46 | 1012.6 |
| 20260502090104 | 57 | 173 | 0.0 | 1.0 | 0.00 | 0.00 | 0.00 | 43 | 1012.6 |
| 20260502080103 | 59 | 304 | 0.0 | 0.0 | 0.00 | 0.00 | 0.00 | 40 | 1012.9 |
| 20260502071103 | 60 | 44 | 1.0 | 3.0 | 0.00 | 0.00 | 0.00 | 38 | 1013.1 |
| 20260502070104 | 61 | 46 | 1.0 | 3.0 | 0.00 | 0.00 | 0.00 | 38 | 1013.1 |
| 20260502065103 | 61 | 38 | 0.0 | 5.0 | 0.00 | 0.00 | 0.00 | 37 | 1013.1 |
| 20260502064103 | 61 | 57 | 1.0 | 5.0 | 0.00 | 0.00 | 0.00 | 37 | 1013.0 |
| 20260502063104 | 62 | 61 | 0.0 | 1.0 | 0.00 | 0.00 | 0.00 | 38 | 1013.1 |
| 20260502062103 | 62 | 40 | 2.0 | 6.0 | 0.00 | 0.00 | 0.00 | 36 | 1013.1 |
| 20260502061104 | 62 | 47 | 2.0 | 6.0 | 0.00 | 0.00 | 0.00 | 36 | 1012.9 |
| 20260502060104 | 62 | 44 | 3.0 | 7.0 | 0.00 | 0.00 | 0.00 | 37 | 1013.1 |
| 20260502055103 | 61 | 43 | 2.0 | 3.0 | 0.00 | 0.00 | 0.00 | 38 | 1013.2 |
| 20260502054104 | 61 | 57 | 1.0 | 6.0 | 0.00 | 0.00 | 0.00 | 39 | 1013.2 |
| 20260502053103 | 59 | 47 | 2.0 | 3.0 | 0.00 | 0.00 | 0.00 | 41 | 1013.2 |
| 20260502052106 | 59 | 88 | 0.0 | 2.0 | 0.00 | 0.00 | 0.00 | 43 | 1013.2 |
| 20260502045104 | 60 | 110 | 2.0 | 5.0 | 0.00 | 0.00 | 0.00 | 40 | 1013.2 |
| 20260502044103 | 60 | 110 | 0.0 | 5.0 | 0.00 | 0.00 | 0.00 | 41 | 1013.1 |
| 20260502043104 | 60 | 101 | 2.0 | 3.0 | 0.00 | 0.00 | 0.00 | 43 | 1013.2 |
| 20260502042103 | 61 | 120 | 0.0 | 1.0 | 0.00 | 0.00 | 0.00 | 42 | 1013.2 |
| 20260502041104 | 61 | 122 | 0.0 | 2.0 | 0.00 | 0.00 | 0.00 | 42 | 1013.2 |
| 20260502040104 | 61 | 98 | 0.0 | 2.0 | 0.00 | 0.00 | 0.00 | 41 | 1013.2 |
| 20260502035104 | 61 | 103 | 1.0 | 5.0 | 0.00 | 0.00 | 0.00 | 40 | 1013.1 |
| 20260502034103 | 61 | 83 | 3.0 | 8.0 | 0.00 | 0.00 | 0.00 | 40 | 1012.9 |
| 20260502033104 | 62 | 90 | 2.0 | 7.0 | 0.00 | 0.00 | 0.00 | 39 | 1012.9 |
| 20260502032104 | 62 | 84 | 2.0 | 9.0 | 0.00 | 0.00 | 0.00 | 38 | 1012.8 |
| 20260502031103 | 63 | 101 | 3.0 | 8.0 | 0.00 | 0.00 | 0.00 | 37 | 1012.8 |
| 20260502030104 | 64 | 111 | 3.0 | 7.0 | 0.00 | 0.00 | 0.00 | 36 | 1012.7 |
| 20260502025103 | 66 | 100 | 3.0 | 7.0 | 0.00 | 0.00 | 0.00 | 35 | 1012.7 |
| 20260502024103 | 67 | 105 | 1.0 | 7.0 | 0.00 | 0.00 | 0.00 | 33 | 1012.7 |
| 20260502023103 | 68 | 68 | 1.0 | 6.0 | 0.00 | 0.00 | 0.00 | 32 | 1012.7 |
| 20260502022104 | 70 | 90 | 2.0 | 5.0 | 0.00 | 0.00 | 0.00 | 30 | 1012.7 |
| 20260502021104 | 72 | 79 | 0.0 | 3.0 | 0.00 | 0.00 | 0.00 | 26 | 1012.7 |